Weather History for Guadalupe Pass, TX

Change the Weather History Date:

Friday, February 15, 2013

  Actual Average Record
Temperature  
Mean Temperature 37 °F -  
Max Temperature 46 °F 54 °F 77 °F (2011)
Min Temperature 28 °F 35 °F 23 °F (2007)
Degree Days  
Heating Degree Days 28    
Moisture  
Dew Point 22 °F    
Average Humidity 65    
Maximum Humidity 88    
Minimum Humidity 37    
Precipitation  
Precipitation 0.00 in - - ()
Sea Level Pressure  
Sea Level Pressure 30.26 in    
Wind  
Wind Speed 32 mph (ENE)    
Max Wind Speed 44 mph    
Max Gust Speed 50 mph    
Visibility 8 miles    
Events      
Averages and records for this station are not official NWS values.
T = Trace of Precipitation, MM = Missing Value Source: NWS Daily Summary

Daily Weather History Graph

Daily Weather History Graph

Search for Another Location

Airport:

Trip Planner

Search our weather history database for the weather conditions in past years. The results will help you decide how hot, cold, wet, or windy it might be!

Date:

Astronomy

Feb. 15, 2013 Rise Set
Actual Time 6:40 AM MST 5:46 PM MST
Civil Twilight 6:16 AM MST 6:11 PM MST
Nautical Twilight 5:47 AM MST 6:39 PM MST
Astronomical Twilight 5:19 AM MST 7:08 PM MST
Moon 9:42 AM MST (2/15) 11:23 PM MST (2/15)
Length of Visible Light 11h 55m
Length of Day
11h 05m
Waxing Crescent, 31% of the Moon is Illuminated
Feb 15
Waxing Crescent
Feb 17
First Quarter
Feb 25
Full
Mar 4
Last Quarter
Mar 11
New

Hourly Weather History & Observations

Time (MST) Temp. Windchill Dew Point Humidity Pressure Visibility Wind Dir Wind Speed Gust Speed Precip Events Conditions
12:51 AM 35.1 °F 20.8 °F 21.9 °F 59% 30.09 in 9.0 mi NE 35.7 mph - N/A   Clear
1:51 AM 33.1 °F 17.6 °F 21.9 °F 64% 30.10 in 9.0 mi ENE 38.0 mph - N/A   Clear
2:51 AM 32.0 °F 15.2 °F 23.0 °F 69% 30.09 in 8.0 mi ENE 43.7 mph - N/A   Clear
3:51 AM 32.0 °F 15.4 °F 25.0 °F 75% 30.12 in 7.0 mi NE 42.6 mph - N/A   Mostly Cloudy
4:51 AM 30.9 °F 14.3 °F 25.0 °F 79% 30.16 in 8.0 mi NE 40.3 mph 48.3 mph N/A   Mostly Cloudy
5:00 AM 30.0 °F 13.8 °F 24.1 °F 79% 30.22 in 8.0 mi NE 35.7 mph - N/A   Scattered Clouds
5:26 AM 30.9 °F 13.9 °F 24.1 °F 76% 30.21 in 9.0 mi ENE 42.6 mph 48.3 mph N/A   Mostly Cloudy
5:51 AM 30.0 °F 13.2 °F 25.0 °F 82% 30.21 in 8.0 mi ENE 39.1 mph 49.5 mph N/A   Overcast
6:37 AM 28.9 °F 11.9 °F 25.0 °F 85% 30.24 in 8.0 mi ENE 38.0 mph - N/A   Overcast
6:49 AM 28.4 °F 11.0 °F 24.8 °F 86% 30.24 in 8.0 mi NE 39.1 mph - N/A   Overcast
6:51 AM 28.9 °F 11.5 °F 25.0 °F 85% 30.22 in 8.0 mi NE 40.3 mph - N/A   Overcast
6:58 AM 28.9 °F 11.9 °F 25.0 °F 85% 30.24 in 7.0 mi NE 38.0 mph - N/A   Overcast
7:18 AM 28.0 °F 11.1 °F 25.0 °F 88% 30.27 in 6.0 mi NE 35.7 mph - N/A   Overcast
7:51 AM 28.9 °F 11.9 °F 24.1 °F 82% 30.27 in 7.0 mi NE 38.0 mph - N/A   Overcast
8:12 AM - - - N/A% - 7.0 mi NE 34.5 mph - N/A   Mostly Cloudy
8:28 AM 30.0 °F 14.2 °F 21.0 °F 69% 30.29 in 8.0 mi ENE 33.4 mph 39.1 mph N/A   Overcast
8:51 AM 30.0 °F 14.2 °F 19.9 °F 66% 30.31 in 8.0 mi NE 33.4 mph 40.3 mph N/A   Overcast
9:51 AM 32.0 °F 17.4 °F 21.0 °F 64% 30.31 in 8.0 mi NE 31.1 mph - N/A   Overcast
10:25 AM 34.0 °F 20.5 °F 21.9 °F 61% 30.32 in 8.0 mi NE 28.8 mph - N/A   Partly Cloudy
10:51 AM 35.1 °F 23.0 °F 21.0 °F 57% 30.29 in 8.0 mi ENE 24.2 mph 31.1 mph N/A   Clear
11:51 AM 35.1 °F 23.8 °F 21.0 °F 57% 30.30 in 8.0 mi ENE 20.7 mph - N/A   Mostly Cloudy
12:51 PM 36.0 °F 27.1 °F 21.0 °F 55% 30.30 in 8.0 mi ENE 13.8 mph - N/A   Mostly Cloudy
1:30 PM 37.0 °F 30.4 °F 21.0 °F 52% 30.28 in 8.0 mi East 9.2 mph - N/A   Overcast
1:51 PM 41.0 °F 38.0 °F 21.9 °F 47% 30.27 in 8.0 mi Variable 4.6 mph - N/A   Mostly Cloudy
2:51 PM 43.0 °F 40.3 °F 23.0 °F 45% 30.25 in 8.0 mi Variable 4.6 mph - N/A   Partly Cloudy
3:51 PM 46.9 °F - 21.9 °F 37% 30.23 in 8.0 mi WSW 20.7 mph 24.2 mph N/A   Partly Cloudy
4:51 PM 44.1 °F 42.5 °F 21.9 °F 42% 30.28 in 8.0 mi Variable 3.5 mph - N/A   Clear
5:51 PM 39.0 °F 31.0 °F 19.9 °F 46% 30.31 in 8.0 mi East 13.8 mph - N/A   Clear
6:51 PM 36.0 °F 26.7 °F 19.9 °F 52% 30.34 in 10.0 mi ENE 15.0 mph - N/A   Clear
7:51 PM 35.1 °F 23.0 °F 19.9 °F 54% 30.35 in 10.0 mi NE 24.2 mph - N/A   Clear
8:51 PM 33.1 °F 20.3 °F 19.9 °F 59% 30.36 in 9.0 mi NE 24.2 mph - N/A   Clear
9:51 PM 32.0 °F 21.2 °F 19.9 °F 61% 30.39 in 9.0 mi ENE 16.1 mph - N/A   Clear
10:51 PM 33.1 °F 25.5 °F 21.0 °F 61% 30.38 in 9.0 mi East 9.2 mph - N/A   Clear
11:51 PM 36.0 °F 31.1 °F 19.9 °F 52% 30.38 in 9.0 mi SW 5.8 mph - N/A   Clear